When you browse on this site, cookies collect data to enhance your experience and personalize the content and advertising you see.
Visit our Privacy Policy to learn more. By continuing to use the site, you agree to this use of cookies and data.
  • In Hungary
  • List of Countries
  • For 7 days
  • Water Temperature
  • Satellite Maps
  • Weather Map
  • News
  • Weather Widgets
  • user-avatar
    Login

    Hourly Weather Cedzyna

    Today, 26 May, Sunday

    Time Temperature Precipitation Wind Pressure Humidity
    00:00 +12°C° 0 mm 1 mps 737 mmHg 90%
    01:00 +11°C° 0 mm 0 mps 737 mmHg 91%
    02:00 +11°C° 0 mm 0 mps 737 mmHg 92%
    03:00 +11°C° 0 mm 0 mps 737 mmHg 92%
    04:00 +11°C° 0 mm 1 mps 737 mmHg 93%
    05:00 +13°C° 0 mm 1 mps 737 mmHg 87%
    06:00 +15°C° 0 mm 1 mps 737 mmHg 82%
    07:00 +17°C° 0 mm 2 mps 737 mmHg 77%
    08:00 +18°C° 0.2 mm 3 mps 737 mmHg 73%
    09:00 +19°C° 0.2 mm 3 mps 737 mmHg 69%
    10:00 +20°C° 0.2 mm 4 mps 737 mmHg 65%
    11:00 +21°C° 0.1 mm 4 mps 737 mmHg 62%
    12:00 +21°C° 0.1 mm 4 mps 737 mmHg 59%
    13:00 +22°C° 0.1 mm 4 mps 737 mmHg 56%
    14:00 +22°C° 0 mm 4 mps 736 mmHg 55%
    15:00 +22°C° 0 mm 4 mps 736 mmHg 54%
    16:00 +22°C° 0 mm 4 mps 736 mmHg 54%
    17:00 +20°C° 0 mm 3 mps 736 mmHg 60%
    18:00 +19°C° 0 mm 2 mps 736 mmHg 67%
    19:00 +18°C° 0 mm 1 mps 736 mmHg 74%
    20:00 +16°C° 0 mm 1 mps 736 mmHg 76%
    21:00 +16°C° 0 mm 1 mps 736 mmHg 78%
    22:00 +15°C° 0 mm 1 mps 736 mmHg 80%
    23:00 +14°C° 0 mm 1 mps 736 mmHg 84%

    Tomorrow, 27 May, Monday

    Time Temperature Precipitation Wind Pressure Humidity
    00:00 +14°C° 0 mm 1 mps 736 mmHg 87%
    01:00 +14°C° 0 mm 2 mps 736 mmHg 90%
    02:00 +13°C° 0 mm 2 mps 736 mmHg 92%
    03:00 +13°C° 0 mm 2 mps 735 mmHg 93%
    04:00 +13°C° 0 mm 2 mps 735 mmHg 95%
    05:00 +15°C° 0 mm 2 mps 735 mmHg 89%
    06:00 +17°C° 0 mm 3 mps 735 mmHg 82%
    07:00 +19°C° 0 mm 3 mps 735 mmHg 75%
    08:00 +20°C° 0.2 mm 4 mps 735 mmHg 72%
    09:00 +22°C° 0.2 mm 4 mps 735 mmHg 69%
    10:00 +23°C° 0.2 mm 5 mps 735 mmHg 65%
    11:00 +23°C° 0.5 mm 5 mps 735 mmHg 63%
    12:00 +25°C° 0.5 mm 5 mps 735 mmHg 62%
    13:00 +25°C° 0.5 mm 5 mps 735 mmHg 60%
    14:00 +25°C° 0 mm 4 mps 735 mmHg 59%
    15:00 +25°C° 0 mm 4 mps 734 mmHg 59%
    16:00 +25°C° 0 mm 3 mps 734 mmHg 58%
    17:00 +24°C° 0.1 mm 3 mps 734 mmHg 65%
    18:00 +21°C° 0.1 mm 2 mps 734 mmHg 72%
    19:00 +20°C° 0.1 mm 2 mps 734 mmHg 79%
    20:00 +19°C° 0.1 mm 2 mps 734 mmHg 81%
    21:00 +20°C° 0.1 mm 1 mps 734 mmHg 83%
    22:00 +19°C° 0.1 mm 1 mps 734 mmHg 85%
    23:00 +19°C° 0.1 mm 1 mps 733 mmHg 86%

    Day after tomorrow, 28 May, Tuesday

    Time Temperature Precipitation Wind Pressure Humidity
    00:00 +18°C° 0.1 mm 1 mps 733 mmHg 88%
    01:00 +16°C° 0.1 mm 0 mps 733 mmHg 89%
    02:00 +18°C° 0.5 mm 1 mps 732 mmHg 91%
    03:00 +18°C° 0.5 mm 1 mps 732 mmHg 93%
    04:00 +16°C° 0.5 mm 2 mps 731 mmHg 96%
    05:00 +17°C° 0 mm 3 mps 731 mmHg 93%
    06:00 +18°C° 0 mm 3 mps 731 mmHg 90%
    07:00 +19°C° 0 mm 4 mps 731 mmHg 87%
    08:00 +21°C° 0 mm 5 mps 731 mmHg 77%
    09:00 +23°C° 0 mm 5 mps 731 mmHg 67%
    10:00 +25°C° 0 mm 5 mps 731 mmHg 58%
    11:00 +25°C° 0 mm 5 mps 730 mmHg 57%
    12:00 +25°C° 0 mm 5 mps 730 mmHg 56%
    13:00 +25°C° 0 mm 4 mps 730 mmHg 56%
    14:00 +23°C° 0.3 mm 4 mps 729 mmHg 63%
    15:00 +22°C° 0.3 mm 4 mps 729 mmHg 70%
    16:00 +21°C° 0.3 mm 4 mps 729 mmHg 77%
    17:00 +21°C° 0.2 mm 4 mps 729 mmHg 80%
    18:00 +20°C° 0.2 mm 3 mps 728 mmHg 82%
    19:00 +19°C° 0.2 mm 3 mps 728 mmHg 84%
    20:00 +19°C° 0 mm 3 mps 729 mmHg 86%
    21:00 +18°C° 0 mm 4 mps 729 mmHg 89%
    22:00 +17°C° 0 mm 4 mps 729 mmHg 91%
    23:00 +15°C° 0 mm 4 mps 729 mmHg 91%

    29 May, Wednesday

    Time Temperature Precipitation Wind Pressure Humidity
    00:00 +14°C° 0 mm 4 mps 730 mmHg 92%
    01:00 +13°C° 0 mm 4 mps 730 mmHg 92%
    02:00 +12°C° 0 mm 4 mps 730 mmHg 91%
    03:00 +12°C° 0 mm 4 mps 731 mmHg 91%
    04:00 +11°C° 0 mm 4 mps 731 mmHg 90%
    05:00 +11°C° 0 mm 3 mps 731 mmHg 89%
    06:00 +12°C° 0 mm 3 mps 732 mmHg 87%
    07:00 +12°C° 0 mm 3 mps 732 mmHg 86%
    08:00 +13°C° 0 mm 3 mps 733 mmHg 82%
    09:00 +13°C° 0 mm 3 mps 733 mmHg 79%
    10:00 +15°C° 0 mm 2 mps 733 mmHg 76%
    11:00 +15°C° 0.2 mm 2 mps 733 mmHg 75%
    12:00 +16°C° 0.2 mm 2 mps 734 mmHg 74%
    13:00 +16°C° 0.2 mm 2 mps 734 mmHg 74%
    14:00 +16°C° 1.2 mm 2 mps 734 mmHg 80%
    15:00 +15°C° 1.2 mm 2 mps 734 mmHg 86%
    16:00 +14°C° 1.2 mm 2 mps 734 mmHg 92%
    17:00 +14°C° 1.4 mm 2 mps 734 mmHg 93%
    18:00 +12°C° 1.4 mm 3 mps 734 mmHg 94%
    19:00 +12°C° 1.4 mm 3 mps 735 mmHg 95%
    20:00 +12°C° 0.4 mm 3 mps 735 mmHg 95%
    21:00 +12°C° 0.4 mm 4 mps 736 mmHg 95%
    22:00 +11°C° 0.4 mm 4 mps 736 mmHg 96%
    23:00 +11°C° 0.1 mm 4 mps 736 mmHg 96%

    30 May, Thursday

    Time Temperature Precipitation Wind Pressure Humidity
    00:00 +11°C° 0.1 mm 3 mps 737 mmHg 96%
    01:00 +11°C° 0.1 mm 3 mps 737 mmHg 96%
    02:00 +12°C° 0 mm 2 mps 737 mmHg 97%
    03:00 +12°C° 0 mm 2 mps 738 mmHg 97%
    04:00 +10°C° 0 mm 2 mps 738 mmHg 98%
    05:00 +11°C° 0.2 mm 3 mps 739 mmHg 96%
    06:00 +11°C° 0.2 mm 4 mps 739 mmHg 95%
    07:00 +10°C° 0.2 mm 5 mps 740 mmHg 94%
    08:00 +10°C° 0.1 mm 5 mps 740 mmHg 91%
    09:00 +10°C° 0.1 mm 5 mps 741 mmHg 89%
    10:00 +10°C° 0.1 mm 5 mps 741 mmHg 86%
    11:00 +13°C° 0 mm 5 mps 742 mmHg 75%
    12:00 +15°C° 0 mm 4 mps 742 mmHg 63%
    13:00 +17°C° 0 mm 4 mps 742 mmHg 52%
    14:00 +17°C° 0 mm 4 mps 742 mmHg 51%
    15:00 +17°C° 0 mm 4 mps 742 mmHg 50%
    16:00 +17°C° 0 mm 4 mps 742 mmHg 50%
    17:00 +16°C° 0 mm 3 mps 742 mmHg 56%
    18:00 +15°C° 0 mm 2 mps 742 mmHg 63%
    19:00 +13°C° 0 mm 1 mps 743 mmHg 69%
    20:00 +12°C° 0 mm 1 mps 743 mmHg 72%
    21:00 +10°C° 0 mm 0 mps 743 mmHg 74%
    22:00 +9°C° 0 mm 0 mps 743 mmHg 76%
    23:00 +8°C° 0 mm 0 mps 743 mmHg 76%

    31 May, Friday

    Time Temperature Precipitation Wind Pressure Humidity
    00:00 +9°C° 0 mm 1 mps 743 mmHg 76%
    01:00 +9°C° 0 mm 1 mps 743 mmHg 75%
    02:00 +8°C° 0 mm 2 mps 743 mmHg 77%
    03:00 +8°C° 0 mm 2 mps 743 mmHg 79%
    04:00 +8°C° 0 mm 2 mps 742 mmHg 80%
    05:00 +10°C° 0 mm 3 mps 742 mmHg 76%
    06:00 +12°C° 0 mm 4 mps 742 mmHg 71%
    07:00 +14°C° 0 mm 4 mps 742 mmHg 67%
    08:00 +15°C° 0 mm 4 mps 742 mmHg 64%
    09:00 +17°C° 0 mm 5 mps 742 mmHg 61%
    10:00 +20°C° 0 mm 5 mps 742 mmHg 58%
    11:00 +20°C° 0.6 mm 5 mps 741 mmHg 64%
    12:00 +19°C° 0.6 mm 5 mps 741 mmHg 70%
    13:00 +19°C° 0.6 mm 5 mps 741 mmHg 76%
    14:00 +17°C° 0.5 mm 5 mps 741 mmHg 79%
    15:00 +17°C° 0.5 mm 5 mps 742 mmHg 82%
    16:00 +16°C° 0.5 mm 5 mps 742 mmHg 85%
    17:00 +15°C° 0.1 mm 5 mps 743 mmHg 86%
    18:00 +13°C° 0.1 mm 5 mps 743 mmHg 88%
    19:00 +12°C° 0.1 mm 4 mps 744 mmHg 90%
    20:00 +10°C° 0 mm 3 mps 745 mmHg 91%
    21:00 +9°C° 0 mm 2 mps 745 mmHg 93%
    22:00 +8°C° 0 mm 1 mps 746 mmHg 94%
    23:00 +8°C° 0 mm 1 mps 746 mmHg 94%
    Show more